Volver al catálogo

DELTA 4 R/B

LostMEO
NORAD 39742·ROCKET BODY·🇺🇸 United States

Lanzado May 17, 2014 desde Cape Canaveral Space Force Station

Loading…

Próximos Pases (próximas 24 horas)

TLE

ObsoletoSource: Space-Track

Época: Aug 4, 2026, 18:59 UTC

1 39742U 14026B   26216.79135506 -.00000079  00000-0  00000-0 0  9998
2 39742  56.6323 341.2346 0014137 131.8229 228.3138  1.93898856 84014

Sigue DELTA 4 R/B en tiempo real con AllMySat

Download on the App Store